TimeMDT,TemperatureF,Dew PointF,Humidity,Sea Level PressureIn,VisibilityMPH,Wind Direction,Wind SpeedMPH,Gust SpeedMPH,PrecipitationIn,Events,Conditions,WindDirDegrees,DateUTC
12:53 AM,33.1,21.9,64,29.81,10.0,Calm,Calm,-,N/A,,Partly Cloudy,0,2013-04-12 06:53:00
1:53 AM,28.0,21.9,78,29.84,10.0,East,4.6,-,N/A,,Clear,90,2013-04-12 07:53:00
2:53 AM,28.0,21.9,78,29.83,10.0,NNW,6.9,-,N/A,,Partly Cloudy,340,2013-04-12 08:53:00
3:53 AM,25.0,19.9,81,29.83,10.0,NNW,8.1,-,N/A,,Partly Cloudy,340,2013-04-12 09:53:00
4:53 AM,27.0,21.0,78,29.83,10.0,NNW,10.4,-,N/A,,Clear,330,2013-04-12 10:53:00
5:53 AM,26.1,19.9,78,29.87,10.0,North,11.5,-,N/A,,Clear,350,2013-04-12 11:53:00
6:53 AM,26.1,21.0,81,29.88,10.0,NNW,5.8,-,N/A,,Clear,330,2013-04-12 12:53:00
7:53 AM,32.0,21.9,66,29.88,10.0,NNW,9.2,-,N/A,,Clear,330,2013-04-12 13:53:00
8:53 AM,37.0,21.0,52,29.91,10.0,NNW,10.4,-,N/A,,Clear,330,2013-04-12 14:53:00
9:53 AM,39.9,19.9,45,29.92,10.0,NNW,11.5,-,N/A,,Clear,340,2013-04-12 15:53:00
10:53 AM,42.1,18.0,38,29.91,10.0,NW,10.4,20.7,N/A,,Clear,320,2013-04-12 16:53:00
11:53 AM,45.0,14.0,29,29.91,10.0,NNW,12.7,20.7,N/A,,Clear,340,2013-04-12 17:53:00
12:53 PM,46.9,19.0,33,29.88,10.0,West,8.1,-,N/A,,Scattered Clouds,270,2013-04-12 18:53:00
1:53 PM,48.0,15.1,27,29.88,10.0,West,9.2,18.4,N/A,,Clear,260,2013-04-12 19:53:00
2:53 PM,48.9,9.0,20,29.86,10.0,WNW,9.2,18.4,N/A,,Clear,300,2013-04-12 20:53:00
3:34 PM,48.2,12.2,24,29.94,10.0,West,11.5,20.7,N/A,,Clear,270,2013-04-12 21:34:00
3:53 PM,48.9,12.0,23,29.87,10.0,WSW,13.8,23.0,N/A,,Clear,250,2013-04-12 21:53:00
4:53 PM,50.0,3.9,15,29.83,10.0,NW,11.5,-,N/A,,Clear,310,2013-04-12 22:53:00
5:53 PM,48.9,12.9,24,29.83,10.0,WSW,9.2,17.3,N/A,,Clear,250,2013-04-12 23:53:00
6:53 PM,46.0,15.1,29,29.84,10.0,WNW,15.0,18.4,N/A,,Clear,300,2013-04-13 00:53:00
7:53 PM,39.9,21.0,47,29.83,10.0,WNW,8.1,-,N/A,,Clear,290,2013-04-13 01:53:00
8:53 PM,34.0,23.0,64,29.84,10.0,WNW,8.1,-,N/A,,Clear,290,2013-04-13 02:53:00
9:53 PM,30.9,21.9,69,29.84,10.0,WNW,4.6,-,N/A,,Clear,300,2013-04-13 03:53:00
10:53 PM,32.0,21.9,66,29.83,10.0,NW,3.5,-,N/A,,Clear,310,2013-04-13 04:53:00
11:53 PM,34.0,21.9,61,29.77,10.0,SSW,4.6,-,N/A,,Clear,210,2013-04-13 05:53:00